Location: Bittkow
(50.3000°N, 19.0000°E)
Time: 15:29:56
(UTC+00:00)

USA 32 - Pass Details

Date: 19 September 2020
Orbit: 778 x 782 km, 85.0° (Epoch: 27 September)

Event Time Altitude Azimuth Distance (km) Brightness Sun altitude
Rises 03:16:47 0° 351° (N) 3,278 7.4 -11.7°
Reaches altitude 10° 03:19:09 10° 350° (N) 2,346 6.6 -11.4°
Maximum altitude 03:24:23 71° 267° (W) 830 4.0 -10.6°
Drops below altitude 10° 03:29:35 10° 185° (S) 2,332 6.3 -9.8°
Sets 03:31:56 0° 183° (S) 3,256 7.1 -9.4°
